EW6329 Weather Reports


Display with metric or nautical units.
time (UTC)temp
F
wind
direction
speed
MPH
gust
MPH
rain 1hr
in
rain 24hr
in
rain mn
in
humidity
%
barometer
mb
20260904010005 90 290 0.0 0.0 0.00 0.00 0.00 59 1011.0
20260904004516 90 290 0.0 0.0 0.00 0.00 0.00 58 1011.0
20260904003029 91 290 0.0 0.0 0.00 0.00 0.00 58 1011.1
20260904001540 91 290 0.0 0.0 0.00 0.00 0.00 57 1011.0
20260904000053 92 290 0.0 0.0 0.00 0.00 0.00 56 1010.9
20260903234510 92 290 0.0 0.0 0.00 0.00 0.00 55 1010.9
20260903233017 93 290 0.0 0.0 0.00 0.00 0.00 55 1010.8
20260903231531 93 290 0.0 0.0 0.00 0.00 0.00 54 1010.7
20260903230047 94 290 0.0 0.0 0.00 0.00 0.00 53 1010.6
20260903224555 95 290 0.0 0.0 0.00 0.00 0.00 51 1010.6
20260903223004 95 290 0.0 0.0 0.00 0.00 0.00 51 1010.4
20260903221519 95 290 0.0 2.0 0.00 0.00 0.00 49 1010.5
20260903220036 94 290 0.0 1.0 0.00 0.00 0.00 51 1010.4
20260903214546 95 290 0.0 2.0 0.00 0.00 0.00 49 1010.4
20260903213053 97 290 0.0 2.0 0.00 0.00 0.00 46 1010.5
20260903211504 96 290 1.0 2.0 0.00 0.00 0.00 46 1010.6
20260903210022 95 290 0.0 2.0 0.00 0.00 0.00 50 1010.9
20260903204529 96 290 0.0 2.0 0.00 0.00 0.00 47 1011.0
20260903203042 96 290 0.0 2.0 0.00 0.00 0.00 47 1011.1
20260903201556 95 290 0.0 2.0 0.00 0.00 0.00 50 1011.3
20260903200006 95 290 0.0 2.0 0.00 0.00 0.00 53 1011.5
20260903194521 96 290 0.0 2.0 0.00 0.00 0.00 49 1011.7
20260903193031 95 290 0.0 2.0 0.00 0.00 0.00 51 1011.9
20260903191550 96 290 0.0 2.0 0.00 0.00 0.00 48 1012.1
20260903190054 97 290 0.0 2.0 0.00 0.00 0.00 49 1012.3
20260903184605 96 290 0.0 2.0 0.00 0.00 0.00 50 1012.4
20260903183014 95 213 0.0 2.0 0.00 0.00 0.00 51 1012.7
20260903181526 91 323 0.0 0.0 0.00 0.00 0.00 60 1012.8
20260903180048 93 323 0.0 3.0 0.00 0.00 0.00 55 1013.1
20260903174553 94 323 0.0 3.0 0.00 0.00 0.00 51 1013.2
20260903173006 95 323 0.0 2.0 0.00 0.00 0.00 50 1013.3
20260903171515 94 323 0.0 2.0 0.00 0.00 0.00 53 1013.6
20260903170029 93 323 1.0 3.0 0.00 0.00 0.00 54 1013.8
20260903164540 93 309 0.0 2.0 0.00 0.00 0.00 56 1013.9
20260903163053 92 321 1.0 4.0 0.00 0.00 0.00 56 1014.1
20260903161501 90 303 0.0 2.0 0.00 0.00 0.00 59 1014.1
20260903160016 90 303 0.0 2.0 0.00 0.00 0.00 60 1014.2
20260903154526 88 303 0.0 2.0 0.00 0.00 0.00 64 1014.2
20260903153039 88 303 0.0 2.0 0.00 0.00 0.00 66 1014.3
20260903151553 86 303 0.0 2.0 0.00 0.00 0.00 68 1014.3
20260903150001 86 303 0.0 4.0 0.00 0.00 0.00 69 1014.3
20260903144513 84 301 0.0 2.0 0.00 0.00 0.00 74 1014.4
20260903143044 81 301 0.0 2.0 0.00 0.00 0.00 79 1014.4
20260903141535 78 197 0.0 2.0 0.00 0.00 0.00 87 1014.4
20260903140050 77 197 0.0 0.0 0.00 0.00 0.00 89 1014.2
20260903134601 76 201 0.0 0.0 0.00 0.00 0.00 89 1014.4
20260903133015 76 198 0.0 0.0 0.00 0.00 0.00 89 1014.4
20260903131525 75 202 0.0 0.0 0.00 0.00 0.00 88 1014.4
20260903130039 75 202 0.0 0.0 0.00 0.00 0.00 88 1014.5
20260903124551 75 202 0.0 0.0 0.00 0.00 0.00 87 1014.5
20260903123001 75 203 0.0 0.0 0.00 0.00 0.00 86 1014.4
20260903121524 75 203 0.0 0.0 0.00 0.00 0.00 86 1014.2
20260903120027 75 203 0.0 0.0 0.00 0.00 0.00 85 1014.0
20260903114540 75 203 0.0 0.0 0.00 0.00 0.00 84 1013.9
20260903113053 75 203 0.0 0.0 0.00 0.00 0.00 84 1013.8
20260903111503 76 203 0.0 0.0 0.00 0.00 0.00 84 1013.6
20260903110018 76 203 0.0 0.0 0.00 0.00 0.00 83 1013.5
20260903104530 76 203 0.0 0.0 0.00 0.00 0.00 83 1013.4
20260903103043 76 203 0.0 0.0 0.00 0.00 0.00 82 1013.4
20260903101600 76 203 0.0 0.0 0.00 0.00 0.00 82 1013.3
20260903100006 77 202 0.0 0.0 0.00 0.00 0.00 82 1013.3
20260903094520 77 203 0.0 0.0 0.00 0.00 0.00 81 1013.2
20260903093041 77 203 0.0 0.0 0.00 0.00 0.00 80 1013.2
20260903091543 77 203 0.0 0.0 0.00 0.00 0.00 79 1013.1
20260903090056 78 203 0.0 0.0 0.00 0.00 0.00 79 1013.1
20260903084517 78 203 0.0 1.0 0.00 0.00 0.00 80 1013.1
20260903083019 78 203 0.0 0.0 0.00 0.00 0.00 79 1013.0
20260903081532 78 203 0.0 0.0 0.00 0.00 0.00 78 1012.9
20260903080050 78 203 0.0 0.0 0.00 0.00 0.00 78 1012.9
20260903074559 79 203 0.0 0.0 0.00 0.00 0.00 77 1012.8
20260903073009 79 203 0.0 0.0 0.00 0.00 0.00 78 1012.8
20260903071522 78 203 0.0 0.0 0.00 0.00 0.00 76 1012.9
20260903070035 78 203 0.0 0.0 0.00 0.00 0.00 77 1013.0
20260903064549 78 203 0.0 0.0 0.00 0.00 0.00 78 1013.0
20260903063103 78 203 0.0 0.0 0.00 0.00 0.00 78 1013.0
20260903061520 78 203 0.0 0.0 0.00 0.00 0.00 79 1013.1
20260903060025 79 203 0.0 0.0 0.00 0.00 0.00 79 1013.2
20260903054541 79 203 0.0 0.0 0.00 0.00 0.00 77 1013.1
20260903053052 79 203 0.0 0.0 0.00 0.00 0.00 77 1013.1
20260903051501 80 203 0.0 0.0 0.00 0.00 0.00 77 1013.0
20260903050015 80 203 0.0 0.0 0.00 0.00 0.00 77 1013.1
20260903044529 80 203 0.0 0.0 0.00 0.00 0.00 76 1013.0
20260903043044 81 203 0.0 0.0 0.00 0.00 0.00 77 1012.9
20260903041602 81 201 0.0 0.0 0.00 0.00 0.00 75 1012.9
20260903040008 81 203 0.0 2.0 0.00 0.00 0.00 74 1013.0
20260903034527 82 200 0.0 0.0 0.00 0.00 0.00 71 1012.9
20260903033032 82 199 0.0 0.0 0.00 0.00 0.00 70 1013.0
20260903031548 83 199 0.0 0.0 0.00 0.00 0.00 69 1013.1
20260903030058 83 199 0.0 0.0 0.00 0.00 0.00 69 1013.1
20260903024508 84 199 0.0 0.0 0.00 0.00 0.00 68 1013.0
20260903023021 84 199 0.0 0.0 0.00 0.00 0.00 67 1012.9
20260903021535 85 199 0.0 0.0 0.00 0.00 0.00 66 1012.8
20260903020054 85 199 0.0 0.0 0.00 0.00 0.00 64 1012.7
20260903014604 86 199 0.0 0.0 0.00 0.00 0.00 64 1012.4
20260903013013 86 199 0.0 0.0 0.00 0.00 0.00 62 1012.2
20260903011528 87 199 0.0 0.0 0.00 0.00 0.00 60 1012.2